SCP
0 0 -0 0 0 0 0 0 0 0 0 0 -0 -0 -0 0 0 0 -0 -0 0 0 0 0 0 0 0 0 0 0 0 0 0 0 0 0 0 0 0 0 0 0 0 0
0 -0 0 0 0 0 0 0 0 -0 -0 0 0 0 -0 -0 0 0 0 0 -0 0 0 0 0 0 0 0 0 0 0 0 0 0 0 0 0 0 0 0 0 0 0 0
0 0 0 0 -0 -0 -0 -0 -0 0 0 -0 0 -0 -0 0 0 -0 0 0 0 0 0 0 0 0 -0 0 0 0 0 0 0 0 0 0 0 0 0 0 0 0 0 0
0 0 0 0 -0 -0 -0 -0 -0 -0 -0 0 0 0 0 0 0 0 -0 0 -0 -0 0 0 0 0 0 -0 0 0 0 0 0 0 0 0 0 0 0 0 0 0 0 0
0 0 -0 -0 -0 0 0 -0 -0 -0 0 0 0 -0 0 0 0 0 0 0 0 -0 -0 -0 -0 -0 0 0 0 0 0 0 0 0 0 0 0 0 0 0 0 0 0 0
0 0 0 -0 -0 -0 -0 0 -0 -0 -0 0 0 0 0 0 0 0 0 0 0 0 0 0 0 -0 -0 0 0 0 0 0 0 0 0 0 0 0 0 0 0 0 0 0
-0 -0 0 -0 -0 -0 0 0 0 0 0 -0 0 0 0 0 0 0 0 0 0 0 0 -0 0 0 0 0 0 0 0 0 0 0 0 0 0 0 0 0 0 0 0 0
-0 -0 0 -0 0 0 0 0 0 0 0 0 0 0 0 0 0 0 0 0 0 0 0 0 0 0 0 0 0 0 0 0 0 0 0 0 0 0 0 0 0 0 0 0
0 0 0 0 0 0 0 0 0 0 0 0 0 0 -0 -0 -0 -0 0 0 0 0 0 0 0 0 0 0 0 0 0 0 0 0 0 0 0 0 0 0 0 0 0 0
-0 0 0 0 0 0 0 0 0 0 0 0 -0 -0 -0 -0 0 0 0 0 0 0 0 0 0 0 0 0 0 0 0 0 0 0 0 0 0 0 0 0 0 0 0 0
0 0 0 0 0 0 0 0 0 0 0 0 0 0 0 0 0 0 0 0 0 0 0 0 0 0 0 0 0 0 0 0 0 0 0 0 0 0 0 0 0 0 0 0
0 0 0 0 0 0 0 0 0 0 0 0 0 0 0 0 0 0 0 0 0 0 0 0 0 0 0 0 0 0 0 0 0 0 0 0 0 0 0 0 0 0 0 0
0 0 0 0 -0 -0 0 0 0 0 0 0 0 0 0 0 0 0 0 0 0 0 0 0 0 0 0 0 0 0 0 0 0 0 0 0 0 0 0 0 0 0 0 0
0 0 0 -0 0 0 0 0 0 0 0 0 0 0 0 0 0 0 0 0 0 0 0 0 0 0 0 0 0 0 0 0 0 0 0 0 0 0 0 0 0 0 0 0
0 0 0 0 0 0 0 0 0 0 0 0 0 0 0 0 0 0 0 0 0 0 0 0 0 0 0 0 0 0 0 0 0 0 0 0 0 0 0 0 0 0 0 0
0 0 0 0 0 0 0 0 0 0 0 0 0 0 0 0 0 0 0 0 0 0 0 0 0 0 0 0 0 0 0 0 0 0 0 0 0 0 0 0 0 0 0 0
0 0 0 0 0 0 0 0 0 0 0 0 0 0 0 0 0 0 0 0 0 0 0 0 0 0 0 0 0 0 0 0 0 0 0 0 0 0 0 0 0 0 0 0
0 0 0 0 0 0 0 0 0 0 0 0 0 0 0 0 0 0 0 0 0 0 0 0 0 0 0 0 0 0 0 0 0 0 0 0 0 0 0 0 0 0 0 0
0 0 0 0 0 0 0 0 0 0 0 0 0 0 0 0 0 0 0 0 0 0 0 0 0 0 0 0 0 0 0 0 0 0 0 0 0 0 0 0 0 0 0 0
0 0 0 0 0 0 0 0 0 0 0 0 0 0 0 0 0 0 0 0 0 0 0 0 0 0 0 0 0 0 0 0 0 0 0 0 0 0 0 0 0 0 0 0
0 0 0 0 0 0 0 0 0 0 0 0 0 0 0 0 0 0 0 0 0 0 0 0 0 0 0 0 0 0 0 0 0 0 0 0 0 0 0 0 0 0 0 0
0 0 0 0 0 0 0 0 0 0 0 0 0 0 0 0 0 0 0 0 0 0 0 0 0 0 0 0 0 0 0 0 0 0 0 0 0 0 0 0 0 0 0 0
0 0 0 0 0 0 0 0 0 0 0 0 0 0 0 0 0 0 0 0 0 0 0 0 0 0 0 0 0 0 0 0 0 0 0 0 0 0 0 0 0 0 0 0
0 0 0 0 0 0 0 0 0 0 0 0 0 0 0 0 0 0 0 0 0 0 0 0 0 0 0 0 0 0 0 0 0 0 0 0 0 0 0 0 0 0 0 0
0 0 0 0 0 0 0 0 0 0 0 0 0 0 0 0 0 0 0 0 0 0 0 0 0 0 0 0 0 0 0 0 0 0 0 0 0 0 0 0 0 0 0 0
0 0 0 0 0 0 0 0 0 0 0 0 0 0 0 0 0 0 0 0 0 0 0 0 0 0 0 0 0 0 0 0 0 0 0 0 0 0 0 0 0 0 0 0
0 0 0 0 0 0 0 0 0 0 0 0 0 0 0 0 0 0 0 0 0 0 0 0 0 0 0 0 0 0 0 0 0 0 0 0 0 0 0 0 0 0 0 0
Wind_Speed_500mb
15 26 20 14 25 10 21 15 6 18 24 29 26 24 30 27 29 34 38 43 51 61 66 74 82 63 48 32 18 19 35 47 46 43 46 43 41 36 38 36 34 34 34 29
9 39 32 36 16 20 12 27 28 39 28 31 36 30 34 34 32 32 32 40 51 58 62 67 75 81 66 54 36 24 34 41 47 46 44 47 53 38 45 47 50 45 48 54
18 28 19 27 29 32 40 41 37 28 17 25 24 26 33 29 27 26 31 35 48 52 55 58 61 63 67 67 53 47 36 33 36 40 44 42 48 46 49 50 46 46 53 48
5 8 11 14 39 32 42 40 39 35 32 27 30 32 31 28 25 28 32 38 45 43 46 49 49 50 52 50 59 63 62 52 38 27 32 32 33 39 46 48 50 51 44 46
6 8 24 19 32 28 14 28 40 33 26 15 29 25 31 30 28 31 37 31 32 35 36 38 41 43 44 47 47 54 62 62 55 47 43 35 28 21 27 38 45 49 44 43
4 7 0 15 41 47 28 11 34 33 27 18 6 2 7 27 28 29 31 29 29 30 29 32 38 35 39 44 46 50 51 49 45 45 42 46 47 40 29 33 33 31 29 24
10 8 11 30 46 40 7 9 29 31 32 39 13 15 10 18 25 28 33 30 29 32 35 36 33 35 35 37 46 39 37 36 33 32 37 34 31 29 24 27 26 27 34 31
13 12 7 58 16 13 6 18 22 26 25 28 25 20 20 24 26 35 32 30 31 34 38 39 35 35 39 41 37 36 32 32 30 32 29 27 25 20 14 23 27 16 25 17
11 6 8 24 23 18 16 16 22 22 20 18 19 23 26 33 36 32 29 28 30 32 33 36 39 39 43 43 33 35 36 34 34 29 29 26 22 23 25 24 30 23 24 25
10 13 17 18 19 20 18 18 18 18 19 17 20 21 26 27 26 25 27 28 27 29 33 34 32 26 31 33 36 34 36 42 43 38 32 27 29 29 28 33 27 27 34 34
10 17 22 19 16 16 17 18 18 18 21 21 18 21 19 21 22 22 23 26 27 27 28 31 31 29 22 24 26 24 27 33 38 41 44 39 37 37 35 31 23 27 32 32
5 6 9 10 9 15 20 20 19 18 19 23 22 20 18 21 20 21 23 23 24 26 26 26 29 31 29 21 18 20 25 27 28 28 28 31 37 41 38 30 25 29 32 30
8 11 15 12 8 10 13 15 18 19 20 18 22 21 20 17 19 17 19 21 21 19 19 22 25 26 27 27 26 20 21 20 19 17 17 22 24 24 26 30 28 27 25 26
11 12 11 6 9 9 10 10 13 18 20 21 19 18 13 15 14 19 23 22 17 16 16 16 17 19 25 26 21 20 21 20 18 19 20 19 19 18 18 15 21 26 24 22
8 10 11 8 7 10 10 10 8 15 16 18 18 17 14 13 13 11 10 20 13 15 16 16 17 16 16 21 24 21 14 19 19 20 19 19 18 19 15 11 8 7 9 14
6 7 9 10 9 12 14 14 13 14 11 9 8 12 10 9 10 14 16 12 13 19 20 20 19 19 13 12 18 17 19 17 16 13 14 14 12 12 11 6 7 5 9 13
7 6 3 4 7 11 13 10 11 8 6 5 1 4 7 11 14 13 17 18 19 22 21 19 17 15 12 9 16 15 13 14 12 10 10 11 10 10 9 9 16 14 13 13
13 14 13 13 10 10 12 12 11 5 1 4 8 8 7 6 11 15 16 17 22 27 24 19 17 18 15 11 13 12 7 10 12 11 10 9 10 6 5 7 8 9 13 12
14 15 15 15 13 14 11 5 1 5 8 8 9 10 12 13 14 16 15 15 11 13 22 18 19 22 16 11 12 8 9 4 5 3 11 6 2 7 11 6 4 4 2 4
17 16 13 12 12 5 6 8 8 9 10 11 13 14 15 16 16 16 17 18 17 30 25 20 14 9 18 8 11 8 6 4 9 15 4 2 7 12 11 5 5 2 4 6
10 11 14 15 14 13 12 9 8 8 9 10 11 13 16 17 21 19 14 6 29 30 19 22 28 14 12 4 10 10 5 5 4 4 3 2 4 2 3 1 3 3 2 3
13 13 13 12 10 8 6 4 3 4 5 7 9 11 13 20 25 25 24 14 20 33 10 23 30 22 5 3 7 7 6 5 5 5 6 6 6 4 6 5 5 5 4 5
11 10 8 8 6 4 6 7 8 8 11 13 14 15 13 13 13 16 13 24 22 31 17 27 32 23 5 5 6 7 6 7 6 5 9 6 8 10 10 14 13 6 12 15
7 5 4 4 7 11 12 17 20 19 22 24 17 24 28 10 10 11 19 31 35 35 19 22 32 19 4 6 12 8 4 8 9 8 13 8 8 8 10 15 9 9 14 15
6 3 1 6 7 10 7 10 11 16 21 19 20 29 26 14 27 26 32 31 29 29 17 23 31 21 8 9 16 13 9 10 19 18 12 11 13 13 12 15 18 14 19 20
4 4 4 7 10 8 11 13 16 14 17 17 17 22 22 24 27 30 21 24 28 23 20 18 25 32 26 6 22 17 16 13 14 16 18 16 9 16 17 19 21 15 13 14
4 5 5 9 10 7 12 19 20 16 22 27 27 23 20 20 25 29 27 21 19 23 24 25 24 27 29 29 26 15 19 17 20 24 24 23 23 18 20 23 26 25 24 25
Wind_Direction_500mb
334 284 167 160 173 152 81 45 52 56 99 78 73 70 68 61 50 42 35 29 30 31 32 37 33 23 26 41 77 146 165 185 188 193 196 192 191 197 201 203 202 199 199 201
320 107 120 86 59 94 86 42 66 72 81 88 90 79 60 48 43 36 32 25 31 36 36 35 44 34 28 32 40 85 115 143 156 173 183 191 193 187 195 187 190 185 190 194
52 103 74 51 35 70 62 48 45 46 46 97 81 60 45 46 39 30 27 22 24 29 34 38 36 46 36 33 42 52 74 97 118 141 157 176 193 201 195 196 197 184 184 187
146 350 59 74 59 68 65 40 33 42 45 64 87 81 61 47 37 29 24 22 13 14 25 32 39 38 48 41 38 49 57 56 63 91 123 138 164 177 182 195 204 207 205 206
334 126 134 42 24 0 39 42 14 19 30 116 137 106 52 32 34 36 33 24 23 13 17 24 34 38 39 48 49 47 54 54 55 58 61 75 80 111 136 157 174 192 188 188
310 135 211 24 335 332 322 63 8 20 18 16 181 0 43 13 31 37 38 27 28 28 25 31 24 27 38 41 48 49 51 56 54 58 62 64 67 67 71 91 97 105 123 151
359 63 85 348 328 311 337 14 9 32 38 44 67 63 48 24 34 46 43 25 29 31 32 33 33 29 42 41 42 44 54 59 63 61 62 67 78 81 73 76 81 74 88 81
355 26 52 355 19 53 338 29 34 41 55 67 72 63 47 39 45 43 37 31 31 34 32 29 36 43 40 45 38 43 50 59 66 70 75 85 82 82 89 87 81 84 80 80
26 72 59 39 59 48 54 56 45 49 51 69 64 52 52 51 50 45 37 36 34 36 37 32 33 40 47 29 38 43 43 49 53 60 81 85 93 115 100 89 81 86 94 92
169 86 78 59 57 55 55 59 48 46 45 53 54 42 54 49 46 42 37 37 38 39 35 33 33 52 59 53 22 43 46 50 57 62 65 74 84 84 86 89 97 102 95 95
92 124 118 78 56 45 48 46 43 45 46 45 56 56 59 54 48 44 42 40 42 41 39 33 33 45 67 68 61 40 52 54 52 59 62 68 75 76 74 76 87 90 89 95
84 58 85 99 63 51 51 44 39 41 43 47 51 56 64 59 54 51 46 42 41 42 40 35 40 47 56 63 72 75 63 69 73 66 48 58 61 68 70 68 77 89 100 99
119 97 116 113 74 60 48 45 46 48 46 50 48 57 65 67 58 53 51 51 47 42 41 33 41 55 58 55 59 65 74 74 76 86 100 93 71 47 63 66 72 80 90 98
119 131 115 119 77 56 43 41 44 49 50 50 50 42 67 71 66 65 49 30 33 36 38 37 44 55 60 55 47 55 54 64 78 84 81 83 88 96 90 73 65 68 71 76
81 74 80 89 65 42 27 22 41 53 46 49 54 60 52 49 49 47 95 76 10 23 26 33 45 53 62 65 30 36 66 63 47 54 64 69 69 77 73 69 90 108 104 79
96 85 75 63 43 31 33 31 59 58 57 51 46 55 54 48 34 36 40 49 22 23 14 17 23 37 49 59 64 30 30 62 68 68 67 70 77 85 81 35 353 24 80 105
201 153 120 110 64 53 53 52 68 58 59 77 25 105 89 66 359 20 15 15 22 16 9 14 18 29 40 61 66 20 21 16 47 41 66 61 53 55 51 27 354 20 59 98
76 71 66 69 94 103 89 86 91 115 230 32 50 48 37 13 7 7 17 28 26 357 358 8 15 14 28 53 67 43 31 33 13 18 3 120 83 57 81 97 91 25 26 62
79 81 78 75 83 103 118 152 73 63 63 52 41 37 29 20 12 10 11 10 14 322 345 3 14 360 8 57 59 13 3 69 77 97 72 46 253 163 127 86 71 112 40 60
87 94 115 136 142 135 116 91 71 62 53 38 25 16 9 7 1 359 1 345 345 346 331 336 332 344 343 36 63 355 347 35 16 7 145 184 74 31 45 68 136 46 21 7
131 115 96 91 95 89 80 78 62 46 28 10 360 356 353 356 1 356 13 334 316 329 340 358 315 313 328 58 33 325 349 16 354 319 268 19 19 332 291 279 307 234 226 255
104 102 97 90 82 76 70 47 27 343 337 343 348 351 2 2 351 345 331 315 304 316 347 286 309 324 300 209 312 302 278 243 235 226 257 228 209 226 282 271 259 278 299 310
114 108 110 107 83 21 2 359 330 322 328 319 320 329 333 352 322 330 310 297 292 301 297 293 312 315 264 293 291 277 304 313 277 288 277 255 254 236 232 258 242 267 254 256
114 98 93 89 59 30 346 330 344 329 337 345 330 333 336 313 314 312 313 310 315 323 314 326 340 334 267 18 314 307 276 285 286 277 298 333 308 311 287 300 279 262 298 298
170 157 44 48 327 272 307 281 309 281 279 308 279 295 303 293 312 297 295 298 304 320 317 316 329 344 0 333 306 309 291 280 287 289 236 257 277 289 283 273 287 285 281 293
102 265 226 292 289 303 308 309 306 311 316 311 308 320 270 283 313 318 321 309 315 326 338 316 313 315 327 298 293 309 310 303 306 307 294 304 280 279 289 288 291 292 295 283
273 316 270 297 287 274 294 305 322 305 298 297 291 277 303 289 303 306 312 323 313 306 307 310 310 308 306 303 295 291 291 293 288 293 287 281 254 257 272 273 276 272 265 264
Wind_Speed_850mb
15 26 20 14 25 10 21 15 6 18 24 29 26 24 30 27 29 34 38 43 51 61 66 74 82 63 48 32 18 19 35 47 46 43 46 43 41 36 38 36 34 34 34 29
9 39 32 36 16 20 12 27 28 39 28 31 36 30 34 34 32 32 32 40 51 58 62 67 75 81 66 54 36 24 34 41 47 46 44 47 53 38 45 47 50 45 48 54
18 28 19 27 29 32 40 41 37 28 17 25 24 26 33 29 27 26 31 35 48 52 55 58 61 63 67 67 53 47 36 33 36 40 44 42 48 46 49 50 46 46 53 48
5 8 11 14 39 32 42 40 39 35 32 27 30 32 31 28 25 28 32 38 45 43 46 49 49 50 52 50 59 63 62 52 38 27 32 32 33 39 46 48 50 51 44 46
6 8 24 19 32 28 14 28 40 33 26 15 29 25 31 30 28 31 37 31 32 35 36 38 41 43 44 47 47 54 62 62 55 47 43 35 28 21 27 38 45 49 44 43
4 7 0 15 41 47 28 11 34 33 27 18 6 2 7 27 28 29 31 29 29 30 29 32 38 35 39 44 46 50 51 49 45 45 42 46 47 40 29 33 33 31 29 24
10 8 11 30 46 40 7 9 29 31 32 39 13 15 10 18 25 28 33 30 29 32 35 36 33 35 35 37 46 39 37 36 33 32 37 34 31 29 24 27 26 27 34 31
13 12 7 58 16 13 6 18 22 26 25 28 25 20 20 24 26 35 32 30 31 34 38 39 35 35 39 41 37 36 32 32 30 32 29 27 25 20 14 23 27 16 25 17
11 6 8 24 23 18 16 16 22 22 20 18 19 23 26 33 36 32 29 28 30 32 33 36 39 39 43 43 33 35 36 34 34 29 29 26 22 23 25 24 30 23 24 25
10 13 17 18 19 20 18 18 18 18 19 17 20 21 26 27 26 25 27 28 27 29 33 34 32 26 31 33 36 34 36 42 43 38 32 27 29 29 28 33 27 27 34 34
10 17 22 19 16 16 17 18 18 18 21 21 18 21 19 21 22 22 23 26 27 27 28 31 31 29 22 24 26 24 27 33 38 41 44 39 37 37 35 31 23 27 32 32
5 6 9 10 9 15 20 20 19 18 19 23 22 20 18 21 20 21 23 23 24 26 26 26 29 31 29 21 18 20 25 27 28 28 28 31 37 41 38 30 25 29 32 30
8 11 15 12 8 10 13 15 18 19 20 18 22 21 20 17 19 17 19 21 21 19 19 22 25 26 27 27 26 20 21 20 19 17 17 22 24 24 26 30 28 27 25 26
11 12 11 6 9 9 10 10 13 18 20 21 19 18 13 15 14 19 23 22 17 16 16 16 17 19 25 26 21 20 21 20 18 19 20 19 19 18 18 15 21 26 24 22
8 10 11 8 7 10 10 10 8 15 16 18 18 17 14 13 13 11 10 20 13 15 16 16 17 16 16 21 24 21 14 19 19 20 19 19 18 19 15 11 8 7 9 14
6 7 9 10 9 12 14 14 13 14 11 9 8 12 10 9 10 14 16 12 13 19 20 20 19 19 13 12 18 17 19 17 16 13 14 14 12 12 11 6 7 5 9 13
7 6 3 4 7 11 13 10 11 8 6 5 1 4 7 11 14 13 17 18 19 22 21 19 17 15 12 9 16 15 13 14 12 10 10 11 10 10 9 9 16 14 13 13
13 14 13 13 10 10 12 12 11 5 1 4 8 8 7 6 11 15 16 17 22 27 24 19 17 18 15 11 13 12 7 10 12 11 10 9 10 6 5 7 8 9 13 12
14 15 15 15 13 14 11 5 1 5 8 8 9 10 12 13 14 16 15 15 11 13 22 18 19 22 16 11 12 8 9 4 5 3 11 6 2 7 11 6 4 4 2 4
17 16 13 12 12 5 6 8 8 9 10 11 13 14 15 16 16 16 17 18 17 30 25 20 14 9 18 8 11 8 6 4 9 15 4 2 7 12 11 5 5 2 4 6
10 11 14 15 14 13 12 9 8 8 9 10 11 13 16 17 21 19 14 6 29 30 19 22 28 14 12 4 10 10 5 5 4 4 3 2 4 2 3 1 3 3 2 3
13 13 13 12 10 8 6 4 3 4 5 7 9 11 13 20 25 25 24 14 20 33 10 23 30 22 5 3 7 7 6 5 5 5 6 6 6 4 6 5 5 5 4 5
11 10 8 8 6 4 6 7 8 8 11 13 14 15 13 13 13 16 13 24 22 31 17 27 32 23 5 5 6 7 6 7 6 5 9 6 8 10 10 14 13 6 12 15
7 5 4 4 7 11 12 17 20 19 22 24 17 24 28 10 10 11 19 31 35 35 19 22 32 19 4 6 12 8 4 8 9 8 13 8 8 8 10 15 9 9 14 15
6 3 1 6 7 10 7 10 11 16 21 19 20 29 26 14 27 26 32 31 29 29 17 23 31 21 8 9 16 13 9 10 19 18 12 11 13 13 12 15 18 14 19 20
4 4 4 7 10 8 11 13 16 14 17 17 17 22 22 24 27 30 21 24 28 23 20 18 25 32 26 6 22 17 16 13 14 16 18 16 9 16 17 19 21 15 13 14
4 5 5 9 10 7 12 19 20 16 22 27 27 23 20 20 25 29 27 21 19 23 24 25 24 27 29 29 26 15 19 17 20 24 24 23 23 18 20 23 26 25 24 25
Wind_Direction_850mb
334 284 167 160 173 152 81 45 52 56 99 78 73 70 68 61 50 42 35 29 30 31 32 37 33 23 26 41 77 146 165 185 188 193 196 192 191 197 201 203 202 199 199 201
320 107 120 86 59 94 86 42 66 72 81 88 90 79 60 48 43 36 32 25 31 36 36 35 44 34 28 32 40 85 115 143 156 173 183 191 193 187 195 187 190 185 190 194
52 103 74 51 35 70 62 48 45 46 46 97 81 60 45 46 39 30 27 22 24 29 34 38 36 46 36 33 42 52 74 97 118 141 157 176 193 201 195 196 197 184 184 187
146 350 59 74 59 68 65 40 33 42 45 64 87 81 61 47 37 29 24 22 13 14 25 32 39 38 48 41 38 49 57 56 63 91 123 138 164 177 182 195 204 207 205 206
334 126 134 42 24 0 39 42 14 19 30 116 137 106 52 32 34 36 33 24 23 13 17 24 34 38 39 48 49 47 54 54 55 58 61 75 80 111 136 157 174 192 188 188
310 135 211 24 335 332 322 63 8 20 18 16 181 0 43 13 31 37 38 27 28 28 25 31 24 27 38 41 48 49 51 56 54 58 62 64 67 67 71 91 97 105 123 151
359 63 85 348 328 311 337 14 9 32 38 44 67 63 48 24 34 46 43 25 29 31 32 33 33 29 42 41 42 44 54 59 63 61 62 67 78 81 73 76 81 74 88 81
355 26 52 355 19 53 338 29 34 41 55 67 72 63 47 39 45 43 37 31 31 34 32 29 36 43 40 45 38 43 50 59 66 70 75 85 82 82 89 87 81 84 80 80
26 72 59 39 59 48 54 56 45 49 51 69 64 52 52 51 50 45 37 36 34 36 37 32 33 40 47 29 38 43 43 49 53 60 81 85 93 115 100 89 81 86 94 92
169 86 78 59 57 55 55 59 48 46 45 53 54 42 54 49 46 42 37 37 38 39 35 33 33 52 59 53 22 43 46 50 57 62 65 74 84 84 86 89 97 102 95 95
92 124 118 78 56 45 48 46 43 45 46 45 56 56 59 54 48 44 42 40 42 41 39 33 33 45 67 68 61 40 52 54 52 59 62 68 75 76 74 76 87 90 89 95
84 58 85 99 63 51 51 44 39 41 43 47 51 56 64 59 54 51 46 42 41 42 40 35 40 47 56 63 72 75 63 69 73 66 48 58 61 68 70 68 77 89 100 99
119 97 116 113 74 60 48 45 46 48 46 50 48 57 65 67 58 53 51 51 47 42 41 33 41 55 58 55 59 65 74 74 76 86 100 93 71 47 63 66 72 80 90 98
119 131 115 119 77 56 43 41 44 49 50 50 50 42 67 71 66 65 49 30 33 36 38 37 44 55 60 55 47 55 54 64 78 84 81 83 88 96 90 73 65 68 71 76
81 74 80 89 65 42 27 22 41 53 46 49 54 60 52 49 49 47 95 76 10 23 26 33 45 53 62 65 30 36 66 63 47 54 64 69 69 77 73 69 90 108 104 79
96 85 75 63 43 31 33 31 59 58 57 51 46 55 54 48 34 36 40 49 22 23 14 17 23 37 49 59 64 30 30 62 68 68 67 70 77 85 81 35 353 24 80 105
201 153 120 110 64 53 53 52 68 58 59 77 25 105 89 66 359 20 15 15 22 16 9 14 18 29 40 61 66 20 21 16 47 41 66 61 53 55 51 27 354 20 59 98
76 71 66 69 94 103 89 86 91 115 230 32 50 48 37 13 7 7 17 28 26 357 358 8 15 14 28 53 67 43 31 33 13 18 3 120 83 57 81 97 91 25 26 62
79 81 78 75 83 103 118 152 73 63 63 52 41 37 29 20 12 10 11 10 14 322 345 3 14 360 8 57 59 13 3 69 77 97 72 46 253 163 127 86 71 112 40 60
87 94 115 136 142 135 116 91 71 62 53 38 25 16 9 7 1 359 1 345 345 346 331 336 332 344 343 36 63 355 347 35 16 7 145 184 74 31 45 68 136 46 21 7
131 115 96 91 95 89 80 78 62 46 28 10 360 356 353 356 1 356 13 334 316 329 340 358 315 313 328 58 33 325 349 16 354 319 268 19 19 332 291 279 307 234 226 255
104 102 97 90 82 76 70 47 27 343 337 343 348 351 2 2 351 345 331 315 304 316 347 286 309 324 300 209 312 302 278 243 235 226 257 228 209 226 282 271 259 278 299 310
114 108 110 107 83 21 2 359 330 322 328 319 320 329 333 352 322 330 310 297 292 301 297 293 312 315 264 293 291 277 304 313 277 288 277 255 254 236 232 258 242 267 254 256
114 98 93 89 59 30 346 330 344 329 337 345 330 333 336 313 314 312 313 310 315 323 314 326 340 334 267 18 314 307 276 285 286 277 298 333 308 311 287 300 279 262 298 298
170 157 44 48 327 272 307 281 309 281 279 308 279 295 303 293 312 297 295 298 304 320 317 316 329 344 0 333 306 309 291 280 287 289 236 257 277 289 283 273 287 285 281 293
102 265 226 292 289 303 308 309 306 311 316 311 308 320 270 283 313 318 321 309 315 326 338 316 313 315 327 298 293 309 310 303 306 307 294 304 280 279 289 288 291 292 295 283
273 316 270 297 287 274 294 305 322 305 298 297 291 277 303 289 303 306 312 323 313 306 307 310 310 308 306 303 295 291 291 293 288 293 287 281 254 257 272 273 276 272 265 264